Central Park, NY

2:13 PM EDT on June 25, 2017 (GMT -0400)
Central Park

Weather History for KNYC - August, 2013

Change the Weather History Date:

Wednesday, August 14, 2013

  Actual Average Record
Temperature  
Mean Temperature 68 °F 76 °F  
Max Temperature 74 °F 83 °F 99 °F (1988)
Min Temperature 61 °F 68 °F 54 °F (1964)
Degree Days  
Heating Degree Days 0 0  
Month to date heating degree days 0 0  
Since 1 June heating degree days 9 19  
Since 1 July heating degree days 0 0  
Cooling Degree Days 3 11  
Month to date cooling degree days 123 155  
Year to date cooling degree days 911 791  
Since 1 June cooling degree days 832 722  
Growing Degree Days 17 (Base 50)    
Moisture  
Dew Point 49 °F    
Average Humidity 64    
Maximum Humidity 87    
Minimum Humidity 41    
Precipitation  
Precipitation 0.00 in 0.15 in 5.81 in (2011)
Month to date precipitation 2.12 2.13  
Year to date precipitation 34.28 30.93  
Snow  
Snow 0.00 in 0.00 in 0.00 in (2002)
Month to date snowfall 0.0 0.0  
Since 1 July snowfall 0.0 0.0  
Snow Depth 0.00 in    
Sea Level Pressure  
Sea Level Pressure 29.88 in    
Wind  
Wind Speed 6 mph (NW)    
Max Wind Speed 15 mph    
Max Gust Speed 27 mph    
Visibility 10 miles    
Events      
T = Trace of Precipitation, MM = Missing Value Source: NWS Daily Summary

Daily Weather History Graph

Daily Weather History Graph

Search for Another Location

Airport or City:

Trip Planner

Search our weather history database for the weather conditions in past years. The results will help you decide how hot, cold, wet, or windy it might be!

Date:

Astronomy

Aug. 14, 2013 Rise Set
Actual Time 6:05 AM EDT 7:55 PM EDT
Civil Twilight 5:35 AM EDT 8:24 PM EDT
Nautical Twilight 4:59 AM EDT 9:00 PM EDT
Astronomical Twilight 4:21 AM EDT 9:38 PM EDT
Moon 2:04 PM EDT (8/14) No Moon Set
Length of Visible Light 14h 48m
Length of Day
13h 49m
First Quarter, 52% of the Moon is Illuminated
Aug 14
First Quarter
Aug 20
Full
Aug 28
Last Quarter
Sep 5
New
Sep 12
First Quarter

Hourly Weather History & Observations

Time (EDT) Temp. Dew Point Humidity Pressure Visibility Wind Dir Wind Speed Gust Speed Precip Events Conditions
12:51 AM 68.0 °F 64.0 °F 87% 29.76 in 9.0 mi North - - N/A   Scattered Clouds
1:51 AM 66.9 °F 59.0 °F 76% 29.77 in 10.0 mi Variable 4.6 mph - N/A   Clear
2:51 AM 66.9 °F 55.9 °F 68% 29.78 in 10.0 mi Variable 6.9 mph - N/A   Clear
3:51 AM 64.9 °F 53.1 °F 65% 29.78 in 10.0 mi Variable 5.8 mph 19.6 mph N/A   Clear
4:51 AM 63.0 °F 50.0 °F 63% 29.80 in 10.0 mi Variable 5.8 mph - N/A   Clear
5:51 AM 62.1 °F 46.9 °F 58% 29.82 in 10.0 mi Variable 3.5 mph - N/A   Clear
6:51 AM 61.0 °F 45.0 °F 56% 29.84 in 10.0 mi Variable 3.5 mph - N/A   Clear
7:51 AM 61.0 °F 45.0 °F 56% 29.85 in 10.0 mi Variable 6.9 mph - N/A   Clear
8:51 AM 63.0 °F 45.0 °F 52% 29.86 in 10.0 mi Variable 6.9 mph - N/A   Clear
9:51 AM 64.9 °F 44.1 °F 47% 29.86 in 10.0 mi Variable 4.6 mph - N/A   Clear
10:51 AM 66.9 °F 46.9 °F 49% 29.87 in 10.0 mi Variable 3.5 mph - N/A   Clear
11:51 AM 70.0 °F 46.9 °F 44% 29.87 in 10.0 mi NNW 11.5 mph 20.7 mph N/A   Clear
12:51 PM 71.1 °F 46.9 °F 42% 29.88 in 10.0 mi Variable 6.9 mph - N/A   Partly Cloudy
1:51 PM 72.0 °F 48.0 °F 43% 29.88 in 10.0 mi WNW 9.2 mph - N/A   Mostly Cloudy
2:51 PM 72.0 °F 48.0 °F 43% 29.88 in 10.0 mi NW 11.5 mph 18.4 mph N/A   Mostly Cloudy
3:51 PM 73.0 °F 48.9 °F 42% 29.88 in 10.0 mi NW 8.1 mph 19.6 mph N/A   Clear
4:51 PM 73.0 °F 50.0 °F 44% 29.89 in 10.0 mi NW 10.4 mph 18.4 mph N/A   Partly Cloudy
5:51 PM 73.0 °F 48.9 °F 42% 29.90 in 10.0 mi NNW 8.1 mph 17.3 mph N/A   Mostly Cloudy
6:51 PM 72.0 °F 48.9 °F 44% 29.92 in 10.0 mi NW 8.1 mph 27.6 mph N/A   Clear
7:51 PM 70.0 °F 48.0 °F 46% 29.95 in 10.0 mi Variable 4.6 mph 17.3 mph N/A   Clear
8:51 PM 69.1 °F 48.0 °F 47% 29.99 in 10.0 mi Variable 5.8 mph - N/A   Clear
9:51 PM 68.0 °F 48.0 °F 49% 30.01 in 10.0 mi Variable 4.6 mph - N/A   Clear
10:51 PM 66.9 °F 48.0 °F 51% 30.04 in 10.0 mi Variable 3.5 mph - N/A   Clear
11:51 PM 66.0 °F 48.0 °F 52% 30.05 in 10.0 mi Variable 5.8 mph - N/A   Clear